W8BS Weather Reports


Display with metric or nautical units.
time (UTC)temp
F
wind
direction
speed
MPH
gust
MPH
rain 1hr
in
rain 24hr
in
rain mn
in
humidity
%
barometer
mb
20260510044504 54 197 1.0 3.0 0.00 0.00 0.00 84 1012.4
20260510044002 54 193 1.0 3.0 0.00 0.00 0.00 84 1011.9
20260510043457 54 196 1.0 2.0 0.00 0.00 0.00 84 1012.5
20260510042956 55 209 2.0 2.0 0.00 0.00 0.00 84 1012.1
20260510042452 55 194 2.0 2.0 0.00 0.00 0.00 84 1012.1
20260510041947 55 197 1.0 3.0 0.00 0.00 0.00 83 1012.3
20260510041444 55 194 1.0 2.0 0.00 0.00 0.00 83 1011.6
20260510040942 55 195 1.0 1.0 0.00 0.00 0.00 83 1011.9
20260510040438 55 197 2.0 2.0 0.00 0.00 0.00 83 1011.7
20260510035934 54 196 1.0 2.0 0.00 0.00 0.00 83 1011.9
20260510035430 55 188 0.0 2.0 0.00 0.00 0.00 83 1011.6
20260510034925 55 190 1.0 2.0 0.00 0.00 0.00 84 1011.8
20260510034424 54 193 1.0 2.0 0.00 0.00 0.00 84 1011.9
20260510033919 54 193 1.0 2.0 0.00 0.00 0.00 84 1011.7
20260510033416 55 196 2.0 2.0 0.00 0.00 0.00 82 1011.7
20260510032913 55 198 2.0 2.0 0.00 0.00 0.00 82 1011.7
20260510032410 55 196 2.0 2.0 0.00 0.00 0.00 82 1011.8
20260510031905 55 195 1.0 2.0 0.00 0.00 0.00 83 1011.5
20260510031401 55 194 0.0 2.0 0.00 0.00 0.00 82 1011.5
20260510030901 55 195 1.0 2.0 0.00 0.00 0.00 82 1011.5
20260510030357 55 194 1.0 2.0 0.00 0.00 0.00 82 1011.3
20260510025855 55 194 0.0 2.0 0.00 0.00 0.00 81 1011.5
20260510025353 55 194 1.0 2.0 0.00 0.00 0.00 81 1011.4
20260510024849 55 195 1.0 2.0 0.00 0.00 0.00 82 1011.3
20260510024346 55 197 1.0 3.0 0.00 0.00 0.00 82 1011.4
20260510023842 55 180 1.0 3.0 0.00 0.00 0.00 82 1011.3
20260510023339 55 203 2.0 3.0 0.00 0.00 0.00 82 1011.4
20260510022836 54 191 0.0 1.0 0.00 0.00 0.00 83 1011.5
20260510022335 54 191 2.0 2.0 0.00 0.00 0.00 85 1011.2
20260510021834 54 191 0.0 0.0 0.00 0.00 0.00 85 1011.2
20260510021333 54 191 0.0 0.0 0.00 0.00 0.00 84 1011.2
20260510020828 55 191 0.0 1.0 0.00 0.00 0.00 83 1010.9
20260510020323 55 191 0.0 2.0 0.00 0.00 0.00 82 1011.3
20260510015819 55 190 1.0 1.0 0.00 0.00 0.00 83 1011.3
20260510015315 55 195 0.0 1.0 0.00 0.00 0.00 82 1011.1
20260510014811 55 195 1.0 1.0 0.00 0.00 0.00 82 1010.9
20260510014308 55 195 0.0 0.0 0.00 0.00 0.00 80 1010.9
20260510013804 56 195 0.0 1.0 0.00 0.00 0.00 80 1011.0
20260510013300 56 195 0.0 0.0 0.00 0.00 0.00 79 1010.8
20260510012755 56 196 0.0 1.0 0.00 0.00 0.00 79 1010.8
20260510012250 56 189 1.0 2.0 0.00 0.00 0.00 78 1010.7
20260510011749 56 189 0.0 1.0 0.00 0.00 0.00 78 1010.3
20260510011245 57 189 1.0 1.0 0.00 0.00 0.00 78 1010.3
20260510010742 57 189 0.0 1.0 0.00 0.00 0.00 78 1010.3
20260510010238 57 189 0.0 2.0 0.00 0.00 0.00 77 1010.2
20260510005736 57 184 0.0 1.0 0.00 0.00 0.00 77 1010.4
20260510005232 57 184 0.0 1.0 0.00 0.00 0.00 77 1010.0
20260510004730 57 184 0.0 1.0 0.00 0.00 0.00 76 1009.9
20260510004228 58 184 0.0 1.0 0.00 0.00 0.00 75 1009.9
20260510003725 58 184 0.0 0.0 0.00 0.00 0.00 75 1009.9
20260510003221 58 184 0.0 1.0 0.00 0.00 0.00 75 1009.7
20260510002720 58 184 0.0 0.0 0.00 0.00 0.00 73 1009.8
20260510002217 59 184 0.0 0.0 0.00 0.00 0.00 72 1009.7
20260510001714 59 181 0.0 1.0 0.00 0.00 0.00 71 1009.7
20260510001213 60 196 1.0 2.0 0.00 0.00 0.00 71 1009.5
20260510000708 60 195 0.0 2.0 0.00 0.00 0.00 70 1009.7
20260510000205 60 193 0.0 3.0 0.00 0.00 0.00 69 1009.5
20260509235702 60 202 1.0 2.0 0.00 0.00 0.00 69 1009.5
20260509235158 60 192 2.0 2.0 0.00 0.00 0.00 69 1009.7
20260509234655 61 203 1.0 1.0 0.00 0.00 0.00 69 1009.9
20260509234152 61 206 0.0 5.0 0.00 0.00 0.00 67 1009.5
20260509233650 61 190 2.0 2.0 0.00 0.00 0.00 67 1009.5
20260509233147 62 228 4.0 6.0 0.00 0.00 0.00 67 1009.4
20260509232643 62 191 2.0 7.0 0.00 0.00 0.00 66 1009.3
20260509232140 62 199 1.0 2.0 0.00 0.00 0.00 67 1009.4
20260509231637 62 205 1.0 5.0 0.00 0.00 0.00 65 1009.3
20260509231134 62 208 1.0 5.0 0.00 0.00 0.00 65 1009.5
20260509230631 62 191 1.0 5.0 0.00 0.00 0.00 65 1009.5
20260509230128 62 166 2.0 7.0 0.00 0.00 0.00 65 1009.4
20260509225624 62 178 0.0 3.0 0.00 0.00 0.00 65 1009.3
20260509225119 62 176 2.0 3.0 0.00 0.00 0.00 65 1009.6
20260509224614 62 193 3.0 5.0 0.00 0.00 0.00 65 1009.6
20260509224112 62 190 1.0 6.0 0.00 0.00 0.00 65 1009.8
20260509223609 63 196 2.0 6.0 0.00 0.00 0.00 64 1009.7
20260509223107 63 204 1.0 6.0 0.00 0.00 0.00 64 1009.6
20260509222602 63 184 3.0 5.0 0.00 0.00 0.00 64 1009.7
20260509222058 63 188 2.0 6.0 0.00 0.00 0.00 65 1009.5
20260509221554 63 224 3.0 5.0 0.00 0.00 0.00 65 1009.7
20260509221050 63 222 5.0 6.0 0.00 0.00 0.00 64 1009.8
20260509220546 64 206 3.0 7.0 0.00 0.00 0.00 63 1009.8
20260509220043 64 181 1.0 5.0 0.00 0.00 0.00 63 1009.8
20260509215538 64 218 3.0 5.0 0.00 0.00 0.00 63 1009.8
20260509215036 64 208 2.0 2.0 0.00 0.00 0.00 64 1009.8
20260509214533 63 195 0.0 3.0 0.00 0.00 0.00 64 1009.9
20260509214030 63 187 3.0 7.0 0.00 0.00 0.00 64 1009.8
20260509213526 64 215 2.0 7.0 0.00 0.00 0.00 63 1009.8
20260509213023 64 214 3.0 6.0 0.00 0.00 0.00 63 1009.6
20260509212520 64 189 4.0 6.0 0.00 0.00 0.00 63 1009.7
20260509212017 65 187 1.0 5.0 0.00 0.00 0.00 62 1009.7
20260509211512 66 176 0.0 6.0 0.00 0.00 0.00 60 1009.5
20260509211009 65 194 2.0 3.0 0.00 0.00 0.00 61 1009.5
20260509210506 64 191 2.0 3.0 0.00 0.00 0.00 63 1009.5
20260509210002 64 184 1.0 2.0 0.00 0.00 0.00 63 1009.5
20260509205456 64 186 1.0 6.0 0.00 0.00 0.00 61 1009.1
20260509204952 64 173 1.0 7.0 0.00 0.00 0.00 63 1009.4
20260509204449 64 210 2.0 5.0 0.00 0.00 0.00 62 1009.3
20260509203945 64 181 1.0 3.0 0.00 0.00 0.00 63 1009.5
20260509203441 64 214 2.0 5.0 0.00 0.00 0.00 62 1009.3
20260509202939 64 227 2.0 6.0 0.00 0.00 0.00 63 1009.5
20260509202435 64 2 3.0 6.0 0.00 0.00 0.00 63 1009.6
20260509201930 63 189 1.0 3.0 0.00 0.00 0.00 63 1009.2
20260509201425 63 107 3.0 5.0 0.00 0.00 0.00 64 1009.3
20260509200923 63 191 2.0 3.0 0.00 0.00 0.00 63 1009.4
20260509200422 63 232 3.0 3.0 0.00 0.00 0.00 63 1009.4
20260509195920 63 182 3.0 3.0 0.00 0.00 0.00 63 1009.3
20260509195415 63 169 1.0 6.0 0.00 0.00 0.00 63 1009.2
20260509194915 63 229 4.0 5.0 0.00 0.00 0.00 62 1009.5
20260509194411 64 242 5.0 6.0 0.00 0.00 0.00 61 1009.4
20260509193908 64 197 2.0 3.0 0.00 0.00 0.00 61 1009.5
20260509193408 64 3 3.0 7.0 0.00 0.00 0.00 61 1009.4
20260509192903 64 213 2.0 5.0 0.00 0.00 0.00 62 1009.4
20260509192400 66 205 3.0 5.0 0.00 0.00 0.00 60 1009.2
20260509191855 65 211 2.0 3.0 0.00 0.00 0.00 61 1009.3
20260509191351 65 203 3.0 7.0 0.00 0.00 0.00 59 1009.3
20260509190848 66 186 1.0 3.0 0.00 0.00 0.00 60 1009.2
20260509190344 66 189 3.0 8.0 0.00 0.00 0.00 60 1009.5
20260509185842 64 194 3.0 8.0 0.00 0.00 0.00 61 1009.4
20260509185338 64 174 1.0 3.0 0.00 0.00 0.00 61 1009.3
20260509184836 64 196 4.0 7.0 0.00 0.00 0.00 61 1009.5
20260509184333 63 244 3.0 6.0 0.00 0.00 0.00 64 1009.5
20260509183829 62 239 3.0 7.0 0.00 0.00 0.00 63 1009.4
20260509183324 63 177 1.0 3.0 0.00 0.00 0.00 63 1009.3
20260509182821 64 252 3.0 6.0 0.00 0.00 0.00 61 1009.4
20260509182318 64 187 1.0 3.0 0.00 0.00 0.00 60 1009.4
20260509181815 64 259 2.0 7.0 0.00 0.00 0.00 61 1009.3
20260509181312 64 227 3.0 7.0 0.00 0.00 0.00 59 1009.3
20260509180810 64 186 1.0 3.0 0.00 0.00 0.00 61 1009.2
20260509180306 64 210 2.0 5.0 0.00 0.00 0.00 61 1009.3
20260509175802 63 194 3.0 5.0 0.00 0.00 0.00 61 1009.3
20260509175259 62 184 2.0 5.0 0.00 0.00 0.00 63 1009.2
20260509174755 63 197 3.0 8.0 0.00 0.00 0.00 62 1009.3
20260509174250 63 194 3.0 3.0 0.00 0.00 0.00 61 1009.5
20260509173746 63 188 3.0 6.0 0.00 0.00 0.00 61 1009.5
20260509173242 64 223 4.0 6.0 0.00 0.00 0.00 60 1009.5
20260509172738 64 181 2.0 6.0 0.00 0.00 0.00 62 1009.6
20260509172235 64 182 1.0 5.0 0.00 0.00 0.00 61 1009.6
20260509171730 64 186 2.0 7.0 0.00 0.00 0.00 61 1009.6
20260509171227 63 173 3.0 7.0 0.00 0.00 0.00 60 1009.7
20260509170724 63 211 3.0 5.0 0.00 0.00 0.00 60 1009.6
20260509170220 63 222 5.0 9.0 0.00 0.00 0.00 59 1009.8
20260509165718 64 211 2.0 3.0 0.00 0.00 0.00 58 1009.7
20260509165214 65 247 4.0 6.0 0.00 0.00 0.00 57 1009.7
20260509164710 64 190 1.0 2.0 0.00 0.00 0.00 58 1009.6
20260509164206 64 211 3.0 3.0 0.00 0.00 0.00 57 1009.5
20260509163703 63 209 0.0 1.0 0.00 0.00 0.00 60 1009.7
20260509163200 61 187 1.0 2.0 0.00 0.00 0.00 62 1009.9
20260509162657 61 202 3.0 3.0 0.00 0.00 0.00 60 1009.7
20260509162153 61 187 1.0 3.0 0.00 0.00 0.00 59 1009.9
20260509161649 61 193 2.0 2.0 0.00 0.00 0.00 60 1009.8
20260509161144 61 194 2.0 2.0 0.00 0.00 0.00 60 1009.9
20260509160640 60 185 0.0 2.0 0.00 0.00 0.00 62 1010.0
20260509160135 59 185 0.0 1.0 0.00 0.00 0.00 62 1010.0
20260509155632 59 192 1.0 3.0 0.00 0.00 0.00 62 1009.9
20260509155128 59 202 2.0 2.0 0.00 0.00 0.00 61 1009.7
20260509154624 59 188 0.0 3.0 0.00 0.00 0.00 61 1009.9
20260509154121 59 186 0.0 2.0 0.00 0.00 0.00 61 1010.2
20260509153618 59 197 2.0 3.0 0.00 0.00 0.00 60 1010.1
20260509153115 59 189 0.0 3.0 0.00 0.00 0.00 60 1010.3
20260509152611 59 192 1.0 2.0 0.00 0.00 0.00 59 1010.1
20260509152109 59 192 2.0 3.0 0.00 0.00 0.00 59 1010.3
20260509151604 60 190 0.0 2.0 0.00 0.00 0.00 60 1010.0
20260509151103 60 175 1.0 2.0 0.00 0.00 0.00 60 1010.7
20260509150600 59 181 0.0 1.0 0.00 0.00 0.00 63 1010.3
20260509150059 58 184 0.0 1.0 0.00 0.00 0.00 62 1010.3
20260509145554 58 184 1.0 1.0 0.00 0.00 0.00 64 1010.3
20260509145049 58 188 1.0 2.0 0.00 0.00 0.00 63 1010.7
20260509144546 58 181 1.0 2.0 0.00 0.00 0.00 66 1010.4
20260509144043 58 171 0.0 1.0 0.00 0.00 0.00 68 1010.4
20260509143540 59 168 0.0 3.0 0.00 0.00 0.00 66 1010.3
20260509143038 58 169 0.0 1.0 0.00 0.00 0.00 69 1010.0
20260509142533 58 169 0.0 1.0 0.00 0.00 0.00 68 1010.1
20260509142029 57 169 1.0 3.0 0.00 0.00 0.00 68 1010.0
20260509141526 56 121 2.0 3.0 0.00 0.00 0.00 69 1010.1
20260509141023 57 124 2.0 2.0 0.00 0.00 0.00 70 1009.9
20260509140519 56 167 0.0 1.0 0.00 0.00 0.00 71 1010.0
20260509140018 56 152 2.0 2.0 0.00 0.00 0.00 70 1010.1
20260509135514 55 136 2.0 3.0 0.00 0.00 0.00 72 1009.8
20260509135012 56 124 2.0 2.0 0.00 0.00 0.00 73 1010.0
20260509134509 55 149 1.0 2.0 0.00 0.00 0.00 74 1010.0
20260509134007 55 150 1.0 3.0 0.00 0.00 0.00 74 1010.0
20260509133503 55 122 3.0 3.0 0.00 0.00 0.00 74 1010.1
20260509133001 55 68 4.0 5.0 0.00 0.00 0.00 74 1010.4
20260509132459 55 117 2.0 3.0 0.00 0.00 0.00 74 1010.3
20260509131955 54 152 0.0 2.0 0.00 0.00 0.00 76 1010.0
20260509131453 54 166 0.0 3.0 0.00 0.00 0.00 75 1010.2
20260509130949 53 166 1.0 1.0 0.00 0.00 0.00 77 1010.6
20260509130445 53 141 1.0 2.0 0.00 0.00 0.00 78 1010.2
20260509125942 53 135 1.0 2.0 0.00 0.00 0.00 78 1010.2
20260509125438 53 157 1.0 2.0 0.00 0.00 0.00 79 1010.1
20260509124934 52 159 1.0 2.0 0.00 0.00 0.00 78 1010.4
20260509124432 52 166 0.0 2.0 0.00 0.00 0.00 78 1010.2
20260509123929 52 152 1.0 2.0 0.00 0.00 0.00 78 1009.9
20260509123426 52 173 0.0 0.0 0.00 0.00 0.00 78 1010.1
20260509122922 52 173 0.0 0.0 0.00 0.00 0.00 79 1010.3
20260509122419 51 173 0.0 0.0 0.00 0.00 0.00 79 1010.3
20260509121916 51 173 0.0 0.0 0.00 0.00 0.00 78 1010.2
20260509121413 51 173 0.0 0.0 0.00 0.00 0.00 78 1010.3
20260509120911 51 173 0.0 0.0 0.00 0.00 0.00 78 1010.2
20260509120408 51 172 0.0 0.0 0.00 0.00 0.00 78 1010.3
20260509115906 50 169 0.0 0.0 0.00 0.00 0.00 78 1010.0
20260509115403 50 169 0.0 0.0 0.00 0.00 0.00 78 1010.2
20260509114901 50 169 0.0 0.0 0.00 0.00 0.00 77 1010.4
20260509114359 50 175 0.0 0.0 0.00 0.00 0.00 79 1010.3
20260509113858 50 175 0.0 0.0 0.00 0.00 0.00 80 1010.3
20260509113355 50 175 0.0 1.0 0.00 0.00 0.00 81 1010.3
20260509112852 50 179 0.0 0.0 0.00 0.00 0.00 81 1010.6
20260509112349 50 179 0.0 0.0 0.00 0.00 0.00 83 1010.6
20260509111846 50 181 0.0 0.0 0.00 0.00 0.00 83 1010.6
20260509111343 50 181 1.0 1.0 0.00 0.00 0.00 82 1010.4
20260509110841 50 181 0.0 1.0 0.00 0.00 0.00 82 1010.4
20260509110336 50 180 0.0 0.0 0.00 0.00 0.00 82 1010.4
20260509105835 50 181 0.0 1.0 0.00 0.00 0.00 80 1010.7
20260509105333 50 182 1.0 1.0 0.00 0.00 0.00 80 1010.3
20260509104829 50 183 0.0 1.0 0.00 0.00 0.00 78 1010.4
20260509104326 50 179 0.0 0.0 0.00 0.00 0.00 76 1010.3
20260509103824 51 182 1.0 1.0 0.00 0.00 0.00 75 1010.3
20260509103321 51 174 0.0 0.0 0.00 0.00 0.00 75 1010.2
20260509102820 51 167 0.0 1.0 0.00 0.00 0.00 73 1010.2
20260509102317 51 172 0.0 2.0 0.00 0.00 0.00 73 1010.2
20260509101812 51 147 2.0 2.0 0.00 0.00 0.00 71 1010.2
20260509101308 51 175 0.0 2.0 0.00 0.00 0.00 71 1010.1
20260509100806 51 163 1.0 2.0 0.00 0.00 0.00 68 1010.1
20260509100303 52 173 0.0 2.0 0.00 0.00 0.00 68 1010.2
20260509095800 52 176 0.0 2.0 0.00 0.00 0.00 67 1010.2
20260509095257 52 174 0.0 0.0 0.00 0.00 0.00 66 1010.3
20260509094754 52 213 2.0 2.0 0.00 0.00 0.00 65 1010.2
20260509094251 53 176 0.0 1.0 0.00 0.00 0.00 65 1010.2
20260509093749 53 183 0.0 2.0 0.00 0.00 0.00 63 1010.2
20260509093246 53 175 1.0 2.0 0.00 0.00 0.00 63 1010.1
20260509092744 54 164 0.0 2.0 0.00 0.00 0.00 61 1010.2
20260509092242 54 76 1.0 2.0 0.00 0.00 0.00 60 1010.2
20260509091739 54 187 0.0 1.0 0.00 0.00 0.00 59 1010.3
20260509091235 54 187 0.0 0.0 0.00 0.00 0.00 61 1010.0
20260509090733 54 187 0.0 1.0 0.00 0.00 0.00 61 1010.1
20260509090231 54 186 0.0 0.0 0.00 0.00 0.00 61 1010.1
20260509085728 54 185 0.0 0.0 0.00 0.00 0.00 58 1010.1
20260509085225 54 186 0.0 0.0 0.00 0.00 0.00 58 1010.4
20260509084722 54 186 0.0 0.0 0.00 0.00 0.00 59 1010.2
20260509084218 54 188 0.0 0.0 0.00 0.00 0.00 58 1010.3
20260509083717 54 188 0.0 0.0 0.00 0.00 0.00 58 1010.2
20260509083213 54 189 0.0 1.0 0.00 0.00 0.00 58 1010.0
20260509082709 54 185 0.0 1.0 0.00 0.00 0.00 58 1010.3
20260509082206 55 187 0.0 1.0 0.00 0.00 0.00 61 1010.1
20260509081703 55 191 1.0 1.0 0.00 0.00 0.00 57 1010.3
20260509081200 55 191 1.0 1.0 0.00 0.00 0.00 56 1010.6
20260509080658 55 191 0.0 0.0 0.00 0.00 0.00 57 1010.3
20260509080156 55 187 0.0 0.0 0.00 0.00 0.00 58 1010.6
20260509075654 55 187 0.0 1.0 0.00 0.00 0.00 58 1010.2
20260509075151 55 189 0.0 1.0 0.00 0.00 0.00 59 1010.3
20260509074648 54 192 0.0 0.0 0.00 0.00 0.00 58 1010.2
20260509074144 54 188 0.0 0.0 0.00 0.00 0.00 59 1010.2
20260509073641 54 188 0.0 0.0 0.00 0.00 0.00 60 1010.4
20260509073137 54 189 0.0 0.0 0.00 0.00 0.00 61 1010.2
20260509072635 53 187 0.0 0.0 0.00 0.00 0.00 59 1010.1
20260509072131 53 187 0.0 0.0 0.00 0.00 0.00 61 1010.2
20260509071628 53 187 0.0 0.0 0.00 0.00 0.00 60 1010.2
20260509071125 53 187 0.0 0.0 0.00 0.00 0.00 62 1010.2
20260509070622 53 187 0.0 0.0 0.00 0.00 0.00 63 1010.2
20260509070119 53 187 0.0 0.0 0.00 0.00 0.00 62 1010.3
20260509065614 53 187 0.0 0.0 0.00 0.00 0.00 63 1010.2
20260509065110 52 187 0.0 0.0 0.00 0.00 0.00 64 1010.4
20260509064608 52 187 0.0 0.0 0.00 0.00 0.00 63 1010.2
20260509064106 52 187 0.0 0.0 0.00 0.00 0.00 64 1010.1
20260509063602 52 187 0.0 0.0 0.00 0.00 0.00 63 1010.3
20260509063059 52 187 0.0 0.0 0.00 0.00 0.00 65 1010.4
20260509062556 53 187 0.0 0.0 0.00 0.00 0.00 64 1010.6
20260509062053 52 187 0.0 0.0 0.00 0.00 0.00 66 1010.6
20260509061550 52 187 0.0 0.0 0.00 0.00 0.00 67 1010.4
20260509061047 53 187 0.0 0.0 0.00 0.00 0.00 70 1010.4
20260509060545 52 187 0.0 0.0 0.00 0.00 0.00 65 1010.9
20260509060040 52 187 0.0 0.0 0.00 0.00 0.00 65 1010.7
20260509055536 52 187 0.0 0.0 0.00 0.00 0.00 66 1010.9
20260509055032 52 187 0.0 0.0 0.00 0.00 0.00 67 1010.7
20260509054529 52 187 0.0 0.0 0.00 0.00 0.00 67 1010.9
20260509054027 52 187 0.0 0.0 0.00 0.00 0.00 66 1010.9
20260509053526 52 187 0.0 0.0 0.00 0.00 0.00 72 1010.8
20260509053022 52 187 0.0 0.0 0.00 0.00 0.00 75 1010.8
20260509052520 52 187 0.0 0.0 0.00 0.00 0.00 70 1010.9
20260509052018 52 187 0.0 0.0 0.00 0.00 0.00 68 1010.9
20260509051515 52 187 0.0 0.0 0.00 0.00 0.00 66 1011.2
20260509051012 52 187 0.0 0.0 0.00 0.00 0.00 66 1011.1
20260509050509 52 187 0.0 0.0 0.00 0.00 0.00 66 1011.3
20260509050005 52 187 0.0 0.0 0.00 0.00 0.00 65 1011.1
20260509045503 53 187 0.0 0.0 0.00 0.00 0.00 70 1011.1
20260509044959 52 187 0.0 0.0 0.00 0.00 0.00 70 1011.0